Simultaneous Nadir Overpasses (SNOs) Predictions

Prediction of SNOs between GOES-14 and NOAA-20 Satellite Orbit:

Table of predicted SNOs for the next 14.0 days since TLE Epoch: 1/15/2022
Index Date Time (GOES-14) GOES-14 Lat,Lon NOAA-20 Lat,Lon Distance(km) Time Diff (sec)
1 01/17/2022 08:22:55 0.01,-104.59 0.04,-104.86 30.72 80
2 01/18/2022 08:06:51 0.01,-104.59 -0.95,-100.33 485.43 80
3 01/19/2022 20:26:08 -0.00,-104.26 -0.31,-105.62 156.02 80
4 01/20/2022 20:10:05 -0.01,-104.26 0.68,-101.09 360.07 80
5 01/22/2022 08:29:16 0.00,-104.59 0.41,-106.39 204.80 80
6 01/23/2022 08:13:13 0.00,-104.60 -0.59,-101.86 311.45 80
7 01/24/2022 20:35:11 0.00,-104.27 -0.62,-107.17 329.67 80
8 01/25/2022 20:13:48 0.00,-104.27 0.38,-102.64 186.22 80
9 01/27/2022 08:35:38 -0.00,-104.59 0.77,-107.92 379.33 80
10 01/28/2022 08:19:35 0.00,-104.59 -0.29,-103.40 136.72 80
